Lid_Strength_Index
11 12 13 13 14 14 14 14 14 14 14 14 14 15 16 17 17 17 17 17 17 18
13 14 15 15 15 16 16 16 16 16 16 17 17 17 17 18 19 19 19 19 19 19
16 16 16 17 17 18 17 17 17 18 19 19 19 19 19 20 19 20 19 20 20 20
18 17 17 18 18 18 18 19 19 20 20 20 20 19 20 20 20 20 20 20 20 20
18 18 19 19 19 19 20 19 20 20 20 20 20 20 21 21 21 21 22 21 21 21
19 19 19 19 19 19 20 20 20 20 21 21 21 21 21 21 22 21 21 21 21 20
19 19 19 19 19 19 19 19 19 20 20 20 21 21 21 21 22 21 20 20 20 20
19 19 19 20 19 19 19 19 18 18 18 18 18 19 20 20 20 20 20 20 19 20
19 20 19 19 19 18 18 18 18 18 17 17 16 15 16 18 20 20 21 21 21 20
19 19 19 19 19 19 19 18 18 17 17 17 16 15 16 17 19 20 21 21 22 21
20 20 19 19 20 20 19 19 19 18 17 17 16 16 16 17 19 20 21 22 23 22
20 20 20 20 20 20 20 20 20 19 19 18 17 16 17 19 20 21 22 22 23 23
20 20 21 21 20 20 20 20 19 19 20 20 19 16 17 19 20 22 23 23 23 21
20 21 20 20 20 21 21 21 21 21 21 21 20 19 17 18 21 23 24 24 25 24